Weather History for Jacksonville, FL

Change the Weather History Date:

Tuesday, May 1, 2012

  Actual Average Record
Temperature  
Mean Temperature 75 °F 70 °F  
Max Temperature 86 °F 82 °F 96 °F (1990)
Min Temperature 63 °F 58 °F 47 °F (2000)
Degree Days  
Heating Degree Days 0 1  
Month to date heating degree days 0 1  
Since 1 July heating degree days 921 1345  
Cooling Degree Days 10 6  
Month to date cooling degree days 10 6  
Year to date cooling degree days 347 202  
Growing Degree Days 24 (Base 50)    
Moisture  
Dew Point 66 °F    
Average Humidity 74    
Maximum Humidity 100    
Minimum Humidity 48    
Precipitation  
Precipitation 0.00 in 0.06 in 1.99 in (1964)
Month to date precipitation 0.00 0.06  
Year to date precipitation 4.87 13.14  
Snow  
Snow 0.00 in 0.00 in 0.00 in (2002)
Month to date snowfall 0.0 0.0  
Since 1 July snowfall 0.0 T  
Snow Depth 0.00 in    
Sea Level Pressure  
Sea Level Pressure 30.12 in    
Wind  
Wind Speed 9 mph (ESE)    
Max Wind Speed 20 mph    
Max Gust Speed 23 mph    
Visibility 9 miles    
Events      
T = Trace of Precipitation, MM = Missing Value Source: NWS Daily Summary

Daily Weather History Graph

Daily Weather History Graph

Search for Another Location

Airport:

Trip Planner

Search our weather history database for the weather conditions in past years. The results will help you decide how hot, cold, wet, or windy it might be!

Date:

Astronomy

May. 01, 2012 Rise Set
Actual Time 6:42 AM EDT 8:05 PM EDT
Civil Twilight 6:17 AM EDT 8:30 PM EDT
Nautical Twilight 5:46 AM EDT 9:01 PM EDT
Astronomical Twilight 5:15 AM EDT 9:33 PM EDT
Moon 3:26 PM EDT (5/1) 3:17 AM EDT (5/1)
Length of Visible Light 14h 13m
Length of Day
13h 22m
Waxing Gibbous, 73% of the Moon is Illuminated
May 1
Waxing Gibbous
May 5
Full
May 12
Last Quarter
May 20
New
May 28
First Quarter

Hourly Weather History & Observations

Time (EDT) Temp. Heat Index Dew Point Humidity Pressure Visibility Wind Dir Wind Speed Gust Speed Precip Events Conditions
12:56 AM 68.0 °F - 66.9 °F 96% 30.14 in 7.0 mi ENE 4.6 mph - N/A   Partly Cloudy
1:56 AM 68.0 °F - 66.9 °F 96% 30.13 in 7.0 mi SE 3.5 mph - N/A   Clear
2:56 AM 66.0 °F - 66.0 °F 100% 30.11 in 6.0 mi Calm Calm - N/A   Partly Cloudy
3:56 AM 66.0 °F - 64.9 °F 96% 30.11 in 9.0 mi NNE 3.5 mph - N/A   Partly Cloudy
4:56 AM 64.9 °F - 64.0 °F 97% 30.10 in 5.0 mi East 3.5 mph - N/A   Partly Cloudy
5:56 AM 64.9 °F - 64.0 °F 97% 30.11 in 6.0 mi ENE 3.5 mph - N/A   Clear
6:56 AM 63.0 °F - 62.1 °F 97% 30.13 in 5.0 mi North 3.5 mph - N/A   Partly Cloudy
7:56 AM 70.0 °F - 69.1 °F 97% 30.16 in 7.0 mi Calm Calm - N/A   Partly Cloudy
8:56 AM 75.9 °F - 70.0 °F 82% 30.15 in 10.0 mi SE 8.1 mph - N/A   Partly Cloudy
9:56 AM 79.0 °F - 66.0 °F 64% 30.16 in 10.0 mi SE 10.4 mph - N/A   Scattered Clouds
10:56 AM 82.0 °F 83.4 °F 64.0 °F 54% 30.16 in 10.0 mi SE 11.5 mph - N/A   Scattered Clouds
11:56 AM 82.9 °F 84.4 °F 64.0 °F 53% 30.16 in 10.0 mi East 10.4 mph - N/A   Scattered Clouds
12:56 PM 84.0 °F 86.3 °F 66.0 °F 55% 30.14 in 10.0 mi East 12.7 mph 23.0 mph N/A   Scattered Clouds
1:56 PM 86.0 °F 87.3 °F 64.0 °F 48% 30.12 in 10.0 mi ESE 13.8 mph 19.6 mph N/A   Scattered Clouds
2:56 PM 84.9 °F 87.1 °F 66.0 °F 53% 30.10 in 10.0 mi ESE 13.8 mph 21.9 mph N/A   Scattered Clouds
3:56 PM 84.0 °F 86.3 °F 66.0 °F 55% 30.09 in 10.0 mi ESE 18.4 mph 23.0 mph N/A   Scattered Clouds
4:56 PM 82.9 °F 85.0 °F 66.0 °F 56% 30.08 in 10.0 mi SE 15.0 mph 19.6 mph N/A   Scattered Clouds
5:56 PM 81.0 °F 83.0 °F 66.0 °F 60% 30.09 in 10.0 mi East 12.7 mph 19.6 mph N/A   Partly Cloudy
6:56 PM 79.0 °F - 64.9 °F 62% 30.08 in 10.0 mi ESE 13.8 mph - N/A   Partly Cloudy
7:56 PM 75.9 °F - 66.0 °F 71% 30.09 in 10.0 mi ESE 11.5 mph 19.6 mph N/A   Partly Cloudy
8:56 PM 73.9 °F - 66.0 °F 76% 30.11 in 10.0 mi ESE 9.2 mph - N/A   Partly Cloudy
9:56 PM 73.0 °F - 66.9 °F 81% 30.12 in 10.0 mi SE 9.2 mph - N/A   Partly Cloudy
10:56 PM 73.0 °F - 68.0 °F 84% 30.12 in 10.0 mi ESE 6.9 mph - N/A   Partly Cloudy
11:56 PM 72.0 °F - 68.0 °F 87% 30.13 in 10.0 mi ESE 6.9 mph - N/A   Partly Cloudy